[[{"header":{"parameterUnit":"m.s-1","parameterCategory":1,"la1":30.2991,"la2":30.254,"lo1":-89.0895,"lo2":-89.0444,"dy":0.0017,"dx":0.0017,"nx":28,"ny":28,"refTime":"2025-11-14T09:00:00:Z","depth":0,"parameterNumber":2,"parameterNumberName":"U-component_of_WINDS"},"data":[0,0,0,0,0,0,0,0,0,0,0,0,0,0,0,0,0,0,0,0,0,0,0,0,0,0,0,0,0,0,0,0,0,0,0,0,0,0,0,0,0,0,0,0,0,0,0,0,0,0,0,0,0,0,0,0,0,0,0.2024,0.2024,0,0.2024,0.2024,0.2024,0.2002,0.2001,0.2001,0.2,0.2,0.2,0.2001,0,0,0,0,0,0,0,0,0,0,0,0,0,0.2005,0.2006,0.2024,0.2024,0.2024,0.2024,0.2024,0.2024,0.2002,0.2001,0.2001,0.2,0.2,0.2,0.2001,0,0,0,0,0,0,0,0,0,0,0,0,0,0.201,0.2006,0.2024,0.2013,0.2012,0.2024,0.2024,0.2024,0.2002,0.2001,0.2,0.2,0.1999,0.2,0.2001,0.2023,0,0,0.2003,0.2004,0,0,0,0,0,0,0,0,0.201,0.2011,0.2015,0.2014,0.2013,0.2012,0.2017,0.2023,0.2002,0.2006,0.2,0.1999,0.2004,0.2005,0.2007,0.2023,0.2023,0.2003,0.2004,0.2004,0.2004,0,0,0,0,0,0,0,0.201,0.2011,0.2024,0.2015,0.2013,0.2008,0.2008,0.2018,0.201,0.2005,0.2004,0.2004,0.2004,0.2006,0.2006,0.2023,0.2003,0.2004,0.2004,0.2005,0.2058,0.2058,0,0,0,0,0,0,0.2011,0.2011,0.2024,0.2024,0.2009,0.2009,0.2009,0.2013,0.201,0.2008,0.2005,0.2003,0.2005,0.2006,0.2006,0.2033,0.2004,0.2005,0.2005,0.2057,0.2058,0.2059,0,0,0,0,0,0,0.201,0.2012,0.2024,0.2017,0.2018,0.201,0.2015,0.2013,0.2016,0.2009,0.2008,0.2009,0.2004,0.2005,0.2019,0.2032,0.2005,0.2006,0.2055,0.2057,0.2058,0.2085,0,0,0,0,0,0,0.201,0.2012,0.202,0.2017,0.2018,0.2037,0.2016,0.2014,0.2017,0.2015,0.2012,0.2011,0.2004,0.2018,0.202,0.2033,0.2007,0.2054,0.2056,0.2058,0.2083,0.2087,0.2091,0,0,0,0,0,0.2009,0.2028,0.2021,0.2023,0.2028,0.2037,0.2038,0.2029,0.2018,0.2026,0.2022,0.2011,0.203,0.202,0.2021,0.2035,0.2053,0.2056,0.2058,0.2081,0.2086,0.209,0,0,0,0,0,0,0.2033,0.2027,0.202,0.2037,0.2038,0.2034,0.2044,0.2035,0.2039,0.2036,0.2025,0.2025,0.204,0.2039,0.2027,0.2056,0.204,0.2042,0.2057,0.2062,0.2066,0.2066,0.2007,0,0,0,0,0,0.204,0.2048,0.2042,0.2058,0.2059,0.2052,0.2055,0.2048,0.2048,0.2049,0.2046,0.2046,0.2052,0.2057,0.2062,0.2082,0.2082,0.2092,0.2096,0.2099,0.2102,0.2113,0.2118,0.2066,0.2066,0.2066,0,0,0.2055,0.2053,0.2058,0.2063,0.2063,0.2071,0.2052,0.2062,0.2068,0.205,0.2063,0.2061,0.2061,0.2078,0.2086,0.2077,0.2116,0.2102,0.2105,0.2106,0.2116,0.2121,0.2126,0.2067,0.2067,0.2067,0,0,0.2087,0.2086,0.21,0.21,0.21,0.2094,0.2098,0.2095,0.2093,0.2106,0.2093,0.21,0.211,0.2111,0.2113,0.2146,0.2136,0.2147,0.2168,0.218,0.2184,0.2187,0.22,0.2205,0.215,0.215,0.215,0,0.2106,0.2118,0.2108,0.2119,0.2121,0.2105,0.212,0.212,0.2122,0.2124,0.2114,0.2128,0.2127,0.2145,0.2152,0.2154,0.2158,0.2148,0.2184,0.2188,0.2191,0.2203,0.2208,0.2151,0.2151,0.2151,0.2151,0,0.2142,0.2151,0.2162,0.2164,0.2168,0.218,0.2172,0.2177,0.2169,0.2165,0.2179,0.2177,0.2182,0.2185,0.2178,0.2202,0.2197,0.2186,0.217,0.2198,0.2209,0.2213,0.2154,0.2153,0.2153,0.2152,0,0,0.219,0.2186,0.219,0.2192,0.219,0.2197,0.2208,0.2213,0.2219,0.222,0.223,0.2239,0.2229,0.2231,0.2224,0.2233,0.2261,0.2221,0.2221,0.223,0.2288,0.2298,0.2304,0.2253,0.2254,0.2255,0.2289,0,0.2222,0.2242,0.2233,0.2254,0.2263,0.2247,0.2258,0.2258,0.2254,0.2261,0.2256,0.2264,0.2249,0.225,0.2259,0.2255,0.2272,0.2253,0.2264,0.2264,0.2266,0.2309,0.2319,0.2352,0.2293,0.2294,0.2294,0,0.2262,0.2266,0.2288,0.2286,0.2289,0.2298,0.2303,0.2309,0.2309,0.2306,0.2308,0.2298,0.231,0.2293,0.2309,0.2295,0.2299,0.2298,0.2299,0.2301,0.2282,0.2314,0.2361,0.2367,0.2301,0.23,0.23,0,0.2297,0.2307,0.2322,0.2323,0.232,0.2327,0.2327,0.2326,0.233,0.2333,0.2335,0.234,0.2343,0.2347,0.2339,0.2326,0.2356,0.2338,0.2355,0.2355,0.2363,0.2363,0.2413,0.2363,0.2363,0.2362,0.2362,0,0.2334,0.2349,0.2337,0.2347,0.2363,0.2352,0.2368,0.2365,0.2365,0.2373,0.236,0.2368,0.2356,0.2364,0.2357,0.2372,0.2373,0.2371,0.237,0.2374,0.2374,0.2377,0.2375,0.2364,0.2363,0.2363,0.2363,0,0.2376,0.2369,0.2384,0.238,0.238,0.2392,0.2388,0.2397,0.2392,0.2403,0.2405,0.2398,0.2406,0.2398,0.2405,0.2401,0.2421,0.2416,0.2422,0.2421,0.2438,0.2437,0.2494,0.2501,0.2444,0.2445,0.2445,0,0.2402,0.2413,0.241,0.2415,0.2415,0.2423,0.2427,0.2416,0.2421,0.2422,0.2431,0.2437,0.2443,0.2456,0.2451,0.2457,0.2452,0.2472,0.2453,0.2457,0.2454,0.2454,0.2456,0.2476,0.2477,0.2477,0.2478,0,0.2448,0.2444,0.245,0.2455,0.246,0.2463,0.2466,0.247,0.246,0.2465,0.2474,0.2478,0.2485,0.2492,0.2497,0.2496,0.2486,0.2483,0.2488,0.2492,0.2496,0.2496,0.2434,0.2482,0.2482,0.2482,0.2481,0.2481,0.2483,0.2493,0.2493,0.25,0.2501,0.2503,0.2511,0.2507,0.2514,0.252,0.2513,0.2523,0.2523,0.2528,0.2528,0.2536,0.2528,0.2534,0.2536,0.2538,0.2541,0.2494,0.2537,0.2537,0.2536,0.2536,0.2536,0,0.253,0.2529,0.2536,0.254,0.2546,0.2535,0.2537,0.2543,0.2552,0.2553,0.2558,0.2568,0.2575,0.2571,0.2577,0.2584,0.258,0.2586,0.2586,0.2587,0.2547,0.2544,0.259,0.259,0.259,0.259,0.259,0.259,0.2555,0.2571,0.2567,0.2583,0.2582,0.2592,0.2594,0.2597,0.2597,0.2609,0.2615,0.2612,0.2611,0.2617,0.2623,0.2621,0.2625,0.2634,0.2631,0.2594,0.2589,0.2584,0.2581,0.2634,0.2634,0.2669,0.267,0.267]},{"header":{"parameterUnit":"m.s-1","parameterCategory":1,"la1":30.2991,"la2":30.254,"lo1":-89.0895,"lo2":-89.0444,"dy":0.0017,"dx":0.0017,"nx":28,"ny":28,"refTime":"2025-11-14T09:00:00:Z","depth":0,"parameterNumber":3,"parameterNumberName":"V-component_of_WINDS"},"data":[0,0,0,0,0,0,0,0,0,0,0,0,0,0,0,0,0,0,0,0,0,0,0,0,0,0,0,0,0,0,0,0,0,0,0,0,0,0,0,0,0,0,0,0,0,0,0,0,0,0,0,0,0,0,0,0,0,0,-1.9142,-1.9142,0,-1.9225,-1.9226,-1.9227,-1.9242,-1.9241,-1.924,-1.924,-1.9322,-1.9325,-1.9328,0,0,0,0,0,0,0,0,0,0,0,0,0,-1.8993,-1.8996,-1.9141,-1.9143,-1.9144,-1.9225,-1.9226,-1.9227,-1.9242,-1.9241,-1.924,-1.924,-1.9322,-1.9325,-1.9328,0,0,0,0,0,0,0,0,0,0,0,0,0,-1.9065,-1.8996,-1.9141,-1.9161,-1.9163,-1.9225,-1.9226,-1.9228,-1.9242,-1.9241,-1.924,-1.9239,-1.932,-1.9325,-1.9329,-1.9376,0,0,-1.9342,-1.9344,0,0,0,0,0,0,0,0,-1.9061,-1.907,-1.9157,-1.916,-1.9163,-1.9222,-1.9204,-1.9277,-1.9242,-1.9212,-1.924,-1.9239,-1.929,-1.9296,-1.9314,-1.938,-1.9383,-1.9342,-1.9345,-1.9347,-1.9348,0,0,0,0,0,0,0,-1.9056,-1.9067,-1.9174,-1.9158,-1.9162,-1.9165,-1.9174,-1.9218,-1.9256,-1.9215,-1.9216,-1.9226,-1.9291,-1.931,-1.9316,-1.9384,-1.9342,-1.9346,-1.9348,-1.935,-1.9494,-1.9495,0,0,0,0,0,0,-1.9048,-1.9063,-1.9172,-1.9177,-1.9108,-1.9168,-1.9179,-1.9204,-1.9255,-1.9262,-1.9227,-1.9226,-1.9303,-1.9311,-1.9319,-1.9378,-1.9347,-1.9351,-1.9353,-1.9492,-1.9494,-1.9495,0,0,0,0,0,0,-1.9044,-1.9057,-1.9168,-1.912,-1.9135,-1.9172,-1.92,-1.9206,-1.9225,-1.9264,-1.9271,-1.9239,-1.9303,-1.9313,-1.9362,-1.9381,-1.9352,-1.9356,-1.9491,-1.9493,-1.9495,-1.9496,0,0,0,0,0,0,-1.904,-1.9056,-1.9074,-1.9121,-1.9137,-1.921,-1.9202,-1.9209,-1.9233,-1.9233,-1.9278,-1.9284,-1.9303,-1.9356,-1.9366,-1.9387,-1.936,-1.9489,-1.9492,-1.9494,-1.9494,-1.9498,-1.95,0,0,0,0,0,-1.9035,-1.9071,-1.9075,-1.9088,-1.9161,-1.9211,-1.9221,-1.9242,-1.9234,-1.9253,-1.9279,-1.9283,-1.9378,-1.9361,-1.9373,-1.9394,-1.9488,-1.9491,-1.9494,-1.9493,-1.9497,-1.95,0,0,0,0,0,0,-1.9024,-1.9077,-1.9083,-1.9135,-1.9169,-1.9214,-1.9238,-1.9246,-1.9282,-1.928,-1.9305,-1.9315,-1.9362,-1.9383,-1.9363,-1.9443,-1.9432,-1.9438,-1.9427,-1.9432,-1.9435,-1.9428,-1.9363,0,0,0,0,0,-1.9028,-1.9065,-1.9109,-1.9151,-1.9168,-1.92,-1.9222,-1.9237,-1.9272,-1.9286,-1.9315,-1.9349,-1.9386,-1.941,-1.9447,-1.9498,-1.9508,-1.9519,-1.9522,-1.9524,-1.9528,-1.9558,-1.9563,-1.9504,-1.9504,-1.9504,0,0,-1.9036,-1.907,-1.9091,-1.9149,-1.9177,-1.9215,-1.9212,-1.9251,-1.9279,-1.9292,-1.934,-1.9362,-1.9402,-1.9452,-1.9476,-1.9471,-1.9547,-1.9528,-1.953,-1.9532,-1.9561,-1.9567,-1.9571,-1.9506,-1.9506,-1.9506,0,0,-1.907,-1.9099,-1.9137,-1.9166,-1.9209,-1.9231,-1.924,-1.9284,-1.93,-1.9349,-1.936,-1.9393,-1.9457,-1.9485,-1.9508,-1.9554,-1.956,-1.9566,-1.9581,-1.9609,-1.9614,-1.9618,-1.9635,-1.964,-1.957,-1.957,-1.957,0,-1.9074,-1.9131,-1.9156,-1.9195,-1.9221,-1.9236,-1.9275,-1.9301,-1.9353,-1.937,-1.9365,-1.9447,-1.9474,-1.9532,-1.9543,-1.9561,-1.9572,-1.956,-1.9612,-1.9616,-1.962,-1.9636,-1.9643,-1.957,-1.957,-1.957,-1.957,0,-1.9135,-1.9175,-1.92,-1.9252,-1.928,-1.9319,-1.9349,-1.9375,-1.9387,-1.9409,-1.9459,-1.9493,-1.9537,-1.9552,-1.9564,-1.9612,-1.9608,-1.9607,-1.9596,-1.9626,-1.9641,-1.9648,-1.9571,-1.9571,-1.9571,-1.957,0,0,-1.9162,-1.9228,-1.9237,-1.9262,-1.9311,-1.9342,-1.9382,-1.9427,-1.9448,-1.9484,-1.9518,-1.9573,-1.9573,-1.9599,-1.9614,-1.9639,-1.9674,-1.9635,-1.9636,-1.9641,-1.9729,-1.9729,-1.9736,-1.9678,-1.968,-1.9681,-1.9726,0,-1.9201,-1.9274,-1.9298,-1.9358,-1.9395,-1.9411,-1.9446,-1.948,-1.9502,-1.9537,-1.9561,-1.96,-1.9597,-1.9613,-1.9638,-1.9664,-1.9692,-1.9661,-1.9709,-1.9711,-1.9698,-1.9744,-1.9744,-1.9785,-1.9732,-1.9733,-1.9734,0,-1.9257,-1.9295,-1.9359,-1.9406,-1.9422,-1.9453,-1.9497,-1.953,-1.9569,-1.9583,-1.9613,-1.9626,-1.9669,-1.9657,-1.9715,-1.9694,-1.9715,-1.9731,-1.9733,-1.9738,-1.9723,-1.9749,-1.9798,-1.9804,-1.9744,-1.9743,-1.9742,0,-1.927,-1.9338,-1.9386,-1.9406,-1.9461,-1.9482,-1.9506,-1.9544,-1.957,-1.9608,-1.9625,-1.9667,-1.9689,-1.9722,-1.9746,-1.9735,-1.9802,-1.9792,-1.9815,-1.9814,-1.9827,-1.9826,-1.988,-1.9842,-1.9842,-1.9842,-1.9842,0,-1.9311,-1.935,-1.9393,-1.9422,-1.9466,-1.9493,-1.9536,-1.956,-1.9594,-1.9628,-1.9645,-1.9676,-1.9707,-1.9742,-1.9762,-1.9807,-1.9817,-1.983,-1.9834,-1.9828,-1.9826,-1.9842,-1.9839,-1.9844,-1.9843,-1.9843,-1.9843,0,-1.9333,-1.9363,-1.9416,-1.9465,-1.9478,-1.9508,-1.955,-1.9578,-1.9602,-1.9645,-1.9657,-1.9693,-1.9736,-1.9764,-1.9818,-1.9831,-1.9881,-1.9885,-1.9868,-1.987,-1.9891,-1.9889,-1.9956,-1.9966,-1.9922,-1.9923,-1.9923,0,-1.9357,-1.9387,-1.944,-1.9464,-1.9489,-1.9528,-1.9555,-1.9583,-1.961,-1.9658,-1.9681,-1.9725,-1.9762,-1.983,-1.9861,-1.9902,-1.9907,-1.9928,-1.9913,-1.9907,-1.9907,-1.9905,-1.9908,-1.993,-1.993,-1.9931,-1.9931,0,-1.9396,-1.941,-1.9448,-1.9493,-1.9525,-1.9561,-1.9597,-1.9616,-1.9651,-1.9681,-1.9725,-1.9754,-1.981,-1.9854,-1.9899,-1.9923,-1.9933,-1.9936,-1.9943,-1.9936,-1.9925,-1.9931,-1.9874,-1.9933,-1.9933,-1.9933,-1.9933,-1.9933,-1.9419,-1.9447,-1.9489,-1.9532,-1.9563,-1.9596,-1.9626,-1.9655,-1.9693,-1.9741,-1.9756,-1.9802,-1.9842,-1.9904,-1.9929,-1.9965,-1.9963,-1.9973,-1.9976,-1.9978,-1.9978,-1.992,-1.9973,-1.9973,-1.9973,-1.9973,-1.9973,0,-1.9459,-1.9487,-1.9526,-1.9577,-1.9611,-1.9619,-1.966,-1.9687,-1.9729,-1.9765,-1.9802,-1.9853,-1.9896,-1.9932,-1.9976,-1.9998,-2.0004,-2.0009,-2.0007,-2.0012,-1.9978,-1.9967,-2.0004,-2.0004,-2.0004,-2.0004,-2.0004,-2.0004,-1.9483,-1.9532,-1.9551,-1.9615,-1.9643,-1.9689,-1.9712,-1.9743,-1.9773,-1.983,-1.9866,-1.989,-1.9926,-1.9973,-2.0013,-2.0022,-2.0037,-2.0041,-2.0051,-2.0018,-2.0015,-2.0011,-2.0001,-2.0045,-2.0045,-2.0083,-2.0083,-2.0084]}]]